Terminal Aerodrome Forecast
Issued by NWS Rapid City, SD

Home | Current Version | Previous Version | Graphics & Text | Print | Product List | Glossary On
Versions: 1 2 3 4 5 6 7 8 9 10 11 12 13
000
FTUS43 KUNR 302320
TAFRAP
TAF
KRAP 302320Z 3100/3124 15015G25KT P6SM SCT250
     FM310200 16010KT P6SM BKN150
      TEMPO 3109/3111 TSRA BKN040CB
     FM311600 03010KT P6SM SCT050 BKN150=

USA.gov is the U.S. government's official web portal to all federal, state and local government web resources and services.